This is the latest recevied weather packets stored in our database for station/object OE6PLD-13. If no packets are shown the sender has not sent any weather packets the latest 10 day(s).
| Time | Temp. | Humidity | Pressure | Rain* | Wind** | Luminosity | Snow |
|---|---|---|---|---|---|---|---|
| 1777279402 | 16.11° C | 39% | 1016.8 hPa | 0.76 mm | - | 723 W/m² | - |
| 1777279219 | 15.56° C | 39% | 1016.7 hPa | 0.76 mm | - | 710 W/m² | - |
| 1777279035 | 15° C | 39% | 1016.8 hPa | 0.76 mm | - | 684 W/m² | - |
| 1777278852 | 15.56° C | 39% | 1016.9 hPa | 0.76 mm | - | 681 W/m² | - |
| 1777278669 | 15.56° C | 39% | 1016.8 hPa | 0.76 mm | - | 697 W/m² | - |
| 1777278485 | 15.56° C | 39% | 1016.6 hPa | 0.76 mm | - | 707 W/m² | - |
| 1777278302 | 15.56° C | 39% | 1016.7 hPa | 0.76 mm | - | 712 W/m² | - |
| 1777278119 | 15° C | 40% | 1016.8 hPa | 0.76 mm | - | 724 W/m² | - |
| 1777277935 | 15° C | 41% | 1016.8 hPa | 0.76 mm | - | 730 W/m² | - |
| 1777277752 | 15.56° C | 41% | 1016.9 hPa | 0.76 mm | - | 726 W/m² | - |
| 1777277569 | 15.56° C | 39% | 1016.7 hPa | 0.76 mm | - | 711 W/m² | - |
| 1777277385 | 15.56° C | 39% | 1016.9 hPa | 0.76 mm | - | 688 W/m² | - |
| 1777277202 | 15.56° C | 40% | 1016.9 hPa | 0.76 mm | - | 654 W/m² | - |
| 1777277019 | 15.56° C | 40% | 1016.9 hPa | 0.76 mm | - | 610 W/m² | - |
| 1777276835 | 15.56° C | 41% | 1017 hPa | 0.76 mm | - | 592 W/m² | - |
| 1777276652 | 15.56° C | 42% | 1016.8 hPa | 0.76 mm | - | 601 W/m² | - |
| 1777276468 | 15.56° C | 41% | 1017 hPa | 0.76 mm | - | 590 W/m² | - |
| 1777276285 | 15.56° C | 41% | 1017.2 hPa | 0.76 mm | - | 576 W/m² | - |
| 1777276102 | 15° C | 41% | 1016.9 hPa | 0.76 mm | - | 555 W/m² | - |
| 1777275918 | 15.56° C | 41% | 1017 hPa | 0.76 mm | - | 554 W/m² | - |
| 1777275735 | 15.56° C | 42% | 1016.9 hPa | 0.76 mm | - | 535 W/m² | - |
| 1777275551 | 15.56° C | 43% | 1016.9 hPa | 0.76 mm | - | 528 W/m² | - |
| 1777275368 | 15° C | 44% | 1016.9 hPa | 0.76 mm | - | 550 W/m² | - |
| 1777275185 | 15° C | 42% | 1016.9 hPa | 0.76 mm | - | 539 W/m² | - |
| 1777275001 | 15° C | 44% | 1017 hPa | 0.76 mm | - | 512 W/m² | - |
* Rain latest hour (hover to see other rain measurements)
** Current wind speed in m/s (hover to see current wind gust speed)